Location: Unspecified
(0.0000°N, 0.0000°E)
Time: 10:08:24
(UTC+00:00)

A-11 Canister half - Pass Details

Date: 10 August 2021
Orbit: 1515 x 1685 km, 47.2° (Epoch: 27 September)

Event Time Altitude Azimuth Distance (km) Brightness Sun altitude
Rises 13:12:05 0° 254° (WSW) 4,659 11.7 67.5°
Reaches altitude 10° 13:16:13 10° 270° (W) 3,687 11.4 66.7°
Maximum altitude 13:22:28 20° 314° (NW) 3,003 11.3 65.5°
Drops below altitude 10° 13:28:52 10° 357° (N) 3,751 11.4 64.3°
Sets 13:33:11 0° 13° (NNE) 4,764 11.7 63.4°
